Regional Weather Roundup
Issued by NWS Goodland, KS

Home | Current Version | Previous Version | Text Only | Print | Product List | Glossary Off
Versions: 1 2 3 4 5 6 7 8 9 10 11 12 13 14 15 16 17 18 19 20 21 22 23 24 25 26 27 28 29 30 31 32 33 34 35 36 37 38 39 40 41 42 43 44 45 46 47 48 49 50

000
ASUS43 KGLD 311408
RWRGLD

GOODLAND FORECAST AREA HOURLY WEATHER ROUNDUP
NATIONAL WEATHER SERVICE GOODLAND KS
800 AM MDT FRI JUL 31 2015

...OFFICIAL OBSERVATIONS...

CITY           SKY/WX    TMP DP  RH WIND       PRES   REMARKS
GOODLAND KS    SUNNY     71  67  87 S8        30.29R
HILL CITY KS   SUNNY     75  70  84 W8        30.23R
IMPERIAL NEB   SUNNY     71  59  65 SW3       30.26S
MCCOOK NEB     SUNNY     72  65  78 W6        30.24R
AKRON CO       SUNNY     69  57  65 S8        30.33S
BURLINGTON CO  MOSUNNY   68  64  87 S8        30.32R
LIMON CO       SUNNY     65  62  90 CALM      30.38R
$$

...UNOFFICIAL OBSERVATIONS...

CITY           SKY/WX    TMP DP  RH WIND       PRES   REMARKS
COLBY KS       PTSUNNY   72  72 100 S6        30.29
NORTON KS      SUNNY     75  64  69 SW9       30.21
SHARON SPRINGS   N/A     69  68  96 N5          N/A
KIT CARSON CO    N/A     68  64  86 MISG        N/A
YUMA CO          N/A     67  61  80 CALM        N/A
$$


USA.gov is the U.S. government's official web portal to all federal, state and local government web resources and services.